Precipitable_Water
1.17 1.18 1.19 1.19 1.21 1.22 1.25 1.29 1.31 1.33 1.29 1.26 1.23 1.23 1.24 1.23 1.20 1.19 1.18 1.15 1.16 1.14 1.11 1.07 1.02 0.96 0.90 0.85 0.81 0.78 0.75 0.73 0.69 0.63 0.57 0.52 0.50 0.49 0.48 0.44 0.40 0.40 0.39 0.37 0.38 0.37 0.36 0.35 0.34 0.34 0.35 0.32 0.31 0.32 0.33 0.32 0.31 0.29 0.28 0.29 0.27 0.26 0.24 0.22 0.20 0.20 0.25 0.29 0.28 0.27 0.29 0.30 0.27 0.27 0.25 0.23 0.21 0.21 0.22 0.23 0.23 0.23 0.25 0.28 0.29
1.15 1.16 1.18 1.20 1.21 1.24 1.27 1.32 1.33 1.31 1.27 1.24 1.22 1.23 1.22 1.21 1.19 1.17 1.14 1.14 1.14 1.12 1.09 1.05 1.00 0.94 0.89 0.85 0.82 0.80 0.77 0.73 0.68 0.62 0.55 0.52 0.51 0.50 0.46 0.43 0.41 0.40 0.39 0.37 0.37 0.37 0.36 0.35 0.34 0.34 0.35 0.34 0.34 0.33 0.33 0.32 0.30 0.29 0.28 0.27 0.26 0.27 0.28 0.24 0.24 0.23 0.21 0.25 0.25 0.28 0.28 0.30 0.25 0.28 0.25 0.22 0.21 0.21 0.21 0.22 0.23 0.25 0.26 0.29 0.30
1.18 1.18 1.17 1.18 1.21 1.26 1.29 1.30 1.30 1.27 1.24 1.21 1.20 1.21 1.20 1.19 1.18 1.14 1.11 1.10 1.11 1.10 1.06 1.01 0.97 0.93 0.88 0.85 0.83 0.80 0.77 0.72 0.66 0.59 0.54 0.53 0.50 0.49 0.47 0.44 0.41 0.39 0.38 0.36 0.36 0.37 0.35 0.35 0.34 0.35 0.35 0.33 0.34 0.35 0.35 0.34 0.32 0.29 0.29 0.30 0.29 0.29 0.29 0.29 0.27 0.25 0.23 0.22 0.26 0.25 0.26 0.28 0.26 0.26 0.26 0.24 0.22 0.22 0.21 0.22 0.23 0.25 0.27 0.29 0.30
1.17 1.16 1.17 1.20 1.24 1.26 1.27 1.29 1.26 1.24 1.20 1.20 1.19 1.20 1.19 1.17 1.16 1.13 1.10 1.09 1.06 1.05 1.02 0.99 0.96 0.92 0.86 0.84 0.81 0.78 0.75 0.70 0.63 0.59 0.57 0.54 0.50 0.48 0.47 0.45 0.43 0.41 0.39 0.38 0.37 0.37 0.36 0.35 0.35 0.36 0.36 0.34 0.34 0.34 0.36 0.35 0.31 0.29 0.30 0.30 0.30 0.30 0.29 0.29 0.31 0.29 0.26 0.22 0.24 0.24 0.27 0.26 0.25 0.27 0.26 0.23 0.22 0.22 0.22 0.22 0.25 0.25 0.26 0.28 0.30
1.15 1.16 1.17 1.19 1.22 1.24 1.25 1.25 1.23 1.22 1.20 1.19 1.18 1.20 1.19 1.16 1.14 1.11 1.10 1.07 1.06 1.03 1.01 1.00 0.95 0.90 0.86 0.83 0.80 0.77 0.72 0.67 0.62 0.61 0.59 0.55 0.51 0.50 0.49 0.46 0.44 0.43 0.41 0.39 0.39 0.38 0.38 0.37 0.36 0.36 0.36 0.34 0.35 0.34 0.35 0.34 0.32 0.30 0.29 0.31 0.30 0.30 0.29 0.30 0.30 0.30 0.26 0.24 0.24 0.26 0.29 0.27 0.26 0.27 0.26 0.22 0.23 0.22 0.21 0.22 0.24 0.26 0.26 0.27 0.29
1.16 1.16 1.18 1.18 1.20 1.22 1.23 1.22 1.21 1.21 1.20 1.18 1.17 1.18 1.19 1.17 1.13 1.12 1.11 1.07 1.04 1.03 1.01 0.99 0.94 0.89 0.86 0.83 0.79 0.75 0.71 0.67 0.64 0.61 0.58 0.55 0.54 0.53 0.51 0.47 0.46 0.44 0.42 0.41 0.40 0.41 0.39 0.38 0.38 0.38 0.36 0.34 0.34 0.34 0.34 0.34 0.33 0.30 0.28 0.29 0.30 0.29 0.28 0.29 0.29 0.28 0.26 0.24 0.24 0.24 0.27 0.25 0.24 0.25 0.25 0.24 0.24 0.22 0.21 0.21 0.23 0.25 0.27 0.25 0.26
1.16 1.16 1.17 1.18 1.19 1.20 1.21 1.21 1.22 1.22 1.20 1.17 1.17 1.17 1.17 1.16 1.13 1.09 1.09 1.06 1.03 1.01 1.00 0.97 0.94 0.90 0.86 0.82 0.78 0.75 0.72 0.69 0.66 0.62 0.59 0.56 0.55 0.54 0.51 0.48 0.47 0.45 0.43 0.43 0.43 0.43 0.42 0.42 0.40 0.39 0.36 0.35 0.34 0.33 0.33 0.33 0.33 0.30 0.29 0.28 0.29 0.28 0.27 0.27 0.27 0.26 0.25 0.23 0.23 0.26 0.26 0.26 0.27 0.23 0.24 0.25 0.25 0.25 0.23 0.22 0.21 0.23 0.25 0.27 0.27
1.15 1.15 1.16 1.16 1.18 1.19 1.21 1.23 1.24 1.23 1.21 1.18 1.17 1.16 1.16 1.15 1.12 1.09 1.07 1.03 1.01 1.00 0.98 0.96 0.94 0.90 0.85 0.81 0.79 0.78 0.75 0.72 0.69 0.64 0.61 0.59 0.58 0.56 0.53 0.50 0.49 0.47 0.46 0.46 0.46 0.45 0.43 0.41 0.40 0.38 0.37 0.36 0.35 0.34 0.32 0.32 0.32 0.29 0.29 0.28 0.28 0.28 0.26 0.26 0.25 0.24 0.23 0.22 0.23 0.24 0.26 0.25 0.24 0.25 0.25 0.26 0.23 0.22 0.25 0.25 0.23 0.24 0.24 0.27 0.29
1.13 1.14 1.16 1.15 1.17 1.20 1.22 1.23 1.25 1.24 1.21 1.16 1.14 1.14 1.14 1.13 1.10 1.08 1.05 1.04 1.03 1.02 1.00 0.97 0.94 0.90 0.86 0.82 0.81 0.80 0.77 0.73 0.70 0.66 0.62 0.61 0.60 0.56 0.54 0.53 0.51 0.49 0.48 0.47 0.47 0.45 0.43 0.42 0.41 0.40 0.39 0.37 0.34 0.32 0.32 0.34 0.32 0.29 0.27 0.27 0.27 0.27 0.26 0.25 0.24 0.23 0.23 0.22 0.22 0.25 0.24 0.23 0.24 0.24 0.24 0.24 0.23 0.24 0.27 0.28 0.26 0.27 0.27 0.26 0.27
1.10 1.12 1.14 1.16 1.20 1.22 1.22 1.23 1.24 1.24 1.20 1.15 1.14 1.14 1.14 1.11 1.08 1.06 1.05 1.05 1.05 1.03 1.00 0.98 0.95 0.91 0.87 0.85 0.84 0.83 0.79 0.76 0.72 0.68 0.65 0.62 0.60 0.58 0.57 0.55 0.53 0.52 0.50 0.49 0.48 0.46 0.44 0.43 0.43 0.41 0.38 0.35 0.30 0.27 0.29 0.32 0.32 0.28 0.26 0.26 0.26 0.25 0.25 0.23 0.23 0.24 0.23 0.22 0.22 0.23 0.23 0.23 0.25 0.27 0.27 0.27 0.29 0.30 0.28 0.28 0.26 0.27 0.28 0.27 0.27
1.10 1.12 1.14 1.19 1.22 1.23 1.22 1.22 1.23 1.21 1.19 1.17 1.15 1.13 1.12 1.09 1.07 1.06 1.05 1.04 1.04 1.03 1.00 0.98 0.96 0.93 0.90 0.87 0.85 0.84 0.81 0.78 0.75 0.72 0.69 0.65 0.62 0.61 0.58 0.57 0.56 0.54 0.53 0.51 0.48 0.46 0.44 0.45 0.44 0.39 0.34 0.30 0.28 0.27 0.27 0.27 0.28 0.29 0.30 0.31 0.31 0.29 0.27 0.25 0.24 0.25 0.24 0.23 0.24 0.24 0.24 0.25 0.27 0.30 0.30 0.30 0.31 0.32 0.31 0.31 0.28 0.27 0.26 0.25 0.24
1.10 1.12 1.16 1.20 1.22 1.21 1.21 1.22 1.22 1.21 1.19 1.16 1.14 1.13 1.12 1.08 1.06 1.06 1.04 1.01 1.01 1.02 0.99 0.98 0.96 0.94 0.92 0.90 0.87 0.85 0.82 0.80 0.76 0.74 0.72 0.69 0.67 0.64 0.61 0.58 0.57 0.56 0.54 0.54 0.51 0.47 0.45 0.44 0.40 0.34 0.32 0.31 0.30 0.30 0.30 0.32 0.33 0.34 0.35 0.35 0.35 0.34 0.35 0.32 0.30 0.28 0.26 0.24 0.24 0.25 0.27 0.28 0.30 0.31 0.31 0.33 0.33 0.34 0.34 0.32 0.29 0.27 0.27 0.27 0.27
1.11 1.13 1.17 1.19 1.21 1.22 1.22 1.21 1.21 1.20 1.19 1.17 1.16 1.13 1.10 1.06 1.05 1.05 1.03 1.02 1.00 0.98 0.97 0.97 0.95 0.94 0.92 0.89 0.87 0.86 0.84 0.81 0.78 0.76 0.75 0.74 0.71 0.68 0.64 0.61 0.59 0.57 0.56 0.56 0.53 0.49 0.47 0.44 0.36 0.33 0.35 0.36 0.35 0.34 0.35 0.36 0.37 0.38 0.39 0.38 0.38 0.38 0.38 0.38 0.38 0.36 0.33 0.29 0.27 0.26 0.30 0.32 0.31 0.32 0.35 0.37 0.39 0.35 0.34 0.31 0.29 0.29 0.30 0.29 0.28
1.13 1.15 1.18 1.19 1.21 1.22 1.22 1.22 1.21 1.20 1.20 1.19 1.16 1.12 1.08 1.05 1.05 1.07 1.06 1.03 1.00 0.98 0.97 0.95 0.95 0.94 0.93 0.90 0.88 0.86 0.84 0.83 0.80 0.79 0.78 0.78 0.76 0.72 0.68 0.66 0.62 0.60 0.59 0.58 0.55 0.53 0.51 0.45 0.36 0.35 0.41 0.45 0.44 0.41 0.42 0.42 0.40 0.39 0.40 0.40 0.40 0.40 0.40 0.40 0.39 0.38 0.37 0.33 0.31 0.29 0.32 0.37 0.34 0.37 0.39 0.41 0.38 0.36 0.34 0.30 0.31 0.30 0.30 0.30 0.31
1.13 1.15 1.16 1.18 1.20 1.21 1.21 1.21 1.20 1.21 1.21 1.19 1.15 1.11 1.07 1.05 1.05 1.06 1.06 1.04 1.01 0.98 0.97 0.96 0.96 0.95 0.93 0.90 0.88 0.86 0.86 0.86 0.84 0.82 0.81 0.80 0.78 0.76 0.74 0.71 0.65 0.64 0.62 0.60 0.59 0.58 0.55 0.51 0.48 0.46 0.47 0.50 0.49 0.46 0.46 0.44 0.42 0.41 0.41 0.42 0.43 0.43 0.42 0.42 0.42 0.41 0.39 0.37 0.35 0.34 0.36 0.39 0.41 0.43 0.42 0.42 0.40 0.39 0.37 0.34 0.33 0.33 0.34 0.34 0.31
1.15 1.15 1.13 1.14 1.16 1.20 1.20 1.20 1.20 1.20 1.19 1.18 1.13 1.09 1.07 1.06 1.05 1.06 1.06 1.05 1.04 1.02 1.00 0.97 0.95 0.94 0.93 0.91 0.88 0.87 0.88 0.86 0.85 0.83 0.83 0.84 0.85 0.82 0.80 0.73 0.68 0.68 0.66 0.65 0.66 0.66 0.62 0.57 0.52 0.49 0.53 0.56 0.54 0.49 0.44 0.42 0.40 0.38 0.38 0.41 0.42 0.42 0.42 0.45 0.46 0.45 0.41 0.39 0.38 0.39 0.41 0.43 0.45 0.43 0.42 0.42 0.41 0.39 0.37 0.34 0.34 0.33 0.31 0.27 0.25
1.13 1.13 1.12 1.14 1.17 1.19 1.21 1.21 1.20 1.20 1.19 1.16 1.12 1.09 1.07 1.07 1.07 1.08 1.04 1.03 1.02 1.00 0.99 0.98 0.97 0.95 0.93 0.92 0.90 0.89 0.88 0.89 0.90 0.91 0.92 0.86 0.76 0.74 0.73 0.73 0.74 0.72 0.70 0.70 0.76 0.76 0.70 0.63 0.56 0.54 0.59 0.59 0.57 0.51 0.45 0.38 0.35 0.34 0.35 0.38 0.39 0.39 0.42 0.46 0.46 0.44 0.43 0.42 0.39 0.41 0.44 0.44 0.43 0.42 0.43 0.42 0.41 0.39 0.35 0.30 0.28 0.30 0.28 0.25 0.25
1.12 1.12 1.13 1.16 1.18 1.20 1.21 1.21 1.21 1.20 1.19 1.16 1.13 1.11 1.12 1.12 1.10 1.09 1.05 1.03 1.01 1.01 1.00 0.98 0.97 0.97 0.95 0.94 0.94 0.92 0.94 0.95 0.93 0.91 0.89 0.83 0.75 0.70 0.70 0.67 0.62 0.64 0.67 0.73 0.79 0.80 0.75 0.66 0.59 0.59 0.60 0.61 0.57 0.53 0.46 0.39 0.33 0.32 0.33 0.36 0.36 0.37 0.39 0.40 0.39 0.39 0.41 0.37 0.36 0.41 0.44 0.43 0.41 0.41 0.42 0.41 0.40 0.39 0.34 0.29 0.31 0.31 0.28 0.27 0.25
1.11 1.12 1.14 1.19 1.21 1.23 1.23 1.22 1.22 1.22 1.20 1.19 1.17 1.13 1.12 1.12 1.13 1.13 1.10 1.07 1.04 1.03 1.02 0.99 0.98 0.98 0.97 0.98 0.98 0.95 0.94 0.94 0.94 0.90 0.82 0.76 0.73 0.71 0.69 0.66 0.61 0.62 0.66 0.71 0.76 0.79 0.74 0.63 0.58 0.56 0.61 0.59 0.50 0.47 0.46 0.41 0.34 0.32 0.34 0.35 0.35 0.35 0.36 0.38 0.37 0.35 0.33 0.30 0.37 0.42 0.41 0.40 0.40 0.40 0.41 0.40 0.38 0.38 0.38 0.36 0.35 0.32 0.29 0.28 0.27
1.17 1.18 1.18 1.20 1.22 1.22 1.23 1.25 1.24 1.23 1.23 1.21 1.18 1.16 1.17 1.16 1.14 1.12 1.10 1.08 1.06 1.05 1.03 1.00 0.97 0.97 0.99 0.99 0.98 0.96 0.94 0.93 0.93 0.89 0.83 0.77 0.74 0.72 0.68 0.62 0.57 0.57 0.62 0.67 0.71 0.70 0.63 0.59 0.59 0.59 0.61 0.53 0.47 0.47 0.46 0.43 0.37 0.33 0.34 0.34 0.33 0.33 0.38 0.38 0.37 0.34 0.30 0.33 0.38 0.40 0.39 0.39 0.39 0.39 0.38 0.37 0.36 0.37 0.38 0.38 0.37 0.35 0.32 0.29 0.28
1.22 1.21 1.21 1.20 1.19 1.20 1.23 1.24 1.22 1.25 1.26 1.23 1.21 1.20 1.18 1.16 1.14 1.11 1.09 1.09 1.08 1.06 1.02 1.00 0.98 0.99 1.00 1.00 0.99 0.97 0.96 0.93 0.92 0.88 0.84 0.79 0.76 0.72 0.67 0.61 0.56 0.55 0.60 0.65 0.69 0.65 0.59 0.57 0.58 0.59 0.56 0.48 0.47 0.46 0.44 0.41 0.38 0.33 0.32 0.33 0.35 0.37 0.38 0.35 0.33 0.31 0.33 0.36 0.38 0.39 0.38 0.38 0.37 0.36 0.36 0.35 0.35 0.36 0.38 0.38 0.37 0.36 0.34 0.31 0.30
1.22 1.19 1.19 1.19 1.20 1.21 1.25 1.25 1.27 1.26 1.26 1.25 1.20 1.17 1.18 1.17 1.14 1.13 1.11 1.08 1.05 1.02 1.02 1.02 1.00 0.97 0.96 0.97 0.96 0.95 0.94 0.91 0.89 0.90 0.88 0.83 0.78 0.74 0.67 0.61 0.58 0.57 0.59 0.65 0.67 0.65 0.63 0.62 0.60 0.60 0.55 0.49 0.44 0.41 0.39 0.39 0.38 0.35 0.33 0.32 0.34 0.34 0.35 0.35 0.33 0.32 0.35 0.37 0.38 0.37 0.36 0.36 0.34 0.33 0.34 0.34 0.35 0.36 0.38 0.36 0.36 0.36 0.36 0.36 0.35
1.23 1.22 1.20 1.19 1.19 1.23 1.25 1.24 1.23 1.24 1.23 1.23 1.20 1.16 1.16 1.13 1.12 1.10 1.08 1.07 1.05 1.02 1.01 0.98 0.94 0.93 0.95 0.98 0.99 0.97 0.93 0.92 0.95 0.92 0.86 0.79 0.75 0.71 0.65 0.61 0.62 0.64 0.64 0.65 0.66 0.65 0.65 0.65 0.64 0.59 0.51 0.46 0.44 0.42 0.41 0.39 0.38 0.35 0.33 0.33 0.33 0.34 0.34 0.33 0.32 0.31 0.35 0.37 0.37 0.35 0.35 0.35 0.33 0.31 0.32 0.33 0.35 0.37 0.37 0.36 0.35 0.35 0.36 0.37 0.38
1.24 1.21 1.18 1.17 1.18 1.19 1.22 1.23 1.22 1.20 1.19 1.18 1.16 1.13 1.11 1.10 1.08 1.06 1.05 1.02 0.99 0.95 0.93 0.91 0.91 0.93 0.95 0.96 0.95 0.94 0.96 0.96 0.95 0.90 0.84 0.79 0.72 0.65 0.61 0.60 0.63 0.67 0.67 0.65 0.64 0.63 0.63 0.63 0.63 0.56 0.49 0.48 0.48 0.45 0.40 0.38 0.36 0.34 0.34 0.34 0.35 0.34 0.34 0.33 0.32 0.32 0.36 0.37 0.37 0.36 0.35 0.34 0.33 0.31 0.32 0.34 0.36 0.38 0.38 0.36 0.35 0.35 0.35 0.36 0.38
1.18 1.15 1.14 1.15 1.16 1.18 1.20 1.19 1.19 1.17 1.16 1.15 1.12 1.11 1.09 1.06 1.00 0.99 0.96 0.93 0.92 0.91 0.91 0.92 0.92 0.92 0.89 0.87 0.89 0.91 0.93 0.91 0.90 0.87 0.84 0.80 0.72 0.65 0.62 0.61 0.63 0.67 0.65 0.63 0.62 0.64 0.65 0.66 0.63 0.56 0.53 0.51 0.50 0.48 0.45 0.42 0.39 0.36 0.36 0.35 0.35 0.34 0.33 0.32 0.31 0.34 0.35 0.36 0.37 0.38 0.37 0.37 0.34 0.33 0.34 0.36 0.38 0.39 0.38 0.36 0.37 0.36 0.36 0.37 0.38
1.14 1.11 1.12 1.14 1.14 1.14 1.11 1.10 1.10 1.11 1.11 1.12 1.10 1.08 1.02 0.98 0.95 0.93 0.91 0.91 0.92 0.92 0.91 0.91 0.91 0.89 0.87 0.87 0.88 0.90 0.91 0.91 0.94 0.92 0.88 0.82 0.77 0.73 0.66 0.61 0.59 0.61 0.63 0.63 0.62 0.63 0.64 0.65 0.62 0.58 0.56 0.54 0.52 0.49 0.47 0.46 0.43 0.40 0.37 0.35 0.34 0.34 0.33 0.32 0.34 0.35 0.35 0.37 0.39 0.39 0.39 0.39 0.37 0.34 0.34 0.36 0.36 0.37 0.37 0.35 0.35 0.34 0.35 0.34 0.33
1.10 1.09 1.08 1.08 1.08 1.07 1.04 1.02 1.02 1.03 1.05 1.05 1.03 1.01 0.99 0.97 0.94 0.91 0.90 0.90 0.91 0.91 0.91 0.89 0.88 0.87 0.86 0.87 0.86 0.86 0.86 0.84 0.83 0.85 0.85 0.79 0.73 0.70 0.64 0.59 0.58 0.58 0.61 0.62 0.61 0.60 0.62 0.62 0.61 0.58 0.54 0.53 0.51 0.49 0.46 0.45 0.43 0.39 0.36 0.34 0.34 0.34 0.34 0.33 0.36 0.37 0.37 0.38 0.40 0.41 0.41 0.41 0.39 0.36 0.33 0.32 0.34 0.36 0.38 0.37 0.35 0.34 0.35 0.35 0.34
1.05 1.04 1.04 1.03 1.02 1.00 0.99 1.00 1.00 1.00 1.00 1.00 0.98 0.97 0.97 0.96 0.92 0.90 0.89 0.90 0.88 0.87 0.87 0.86 0.85 0.86 0.86 0.85 0.84 0.82 0.83 0.83 0.83 0.81 0.78 0.76 0.72 0.69 0.66 0.61 0.56 0.53 0.51 0.52 0.54 0.56 0.59 0.59 0.55 0.52 0.49 0.46 0.44 0.43 0.43 0.42 0.39 0.37 0.33 0.32 0.32 0.33 0.35 0.37 0.39 0.39 0.40 0.42 0.42 0.43 0.43 0.42 0.38 0.35 0.34 0.33 0.34 0.35 0.38 0.37 0.35 0.35 0.36 0.35 0.33
1.04 1.02 1.01 1.00 0.98 0.99 0.98 0.97 0.96 0.96 0.96 0.98 1.00 1.00 0.97 0.95 0.94 0.94 0.96 0.96 0.94 0.91 0.87 0.87 0.89 0.89 0.87 0.84 0.81 0.80 0.81 0.82 0.84 0.83 0.77 0.75 0.71 0.68 0.64 0.58 0.52 0.47 0.44 0.46 0.51 0.55 0.57 0.57 0.51 0.46 0.43 0.41 0.41 0.40 0.39 0.38 0.37 0.35 0.32 0.30 0.30 0.33 0.37 0.39 0.39 0.40 0.42 0.43 0.42 0.42 0.41 0.41 0.38 0.36 0.34 0.33 0.34 0.35 0.37 0.36 0.37 0.36 0.36 0.36 0.34
0.99 0.98 1.00 0.99 0.98 0.98 0.98 0.97 0.96 0.95 0.95 0.95 0.94 0.95 0.98 0.97 0.96 0.93 0.92 0.95 0.95 0.94 0.93 0.91 0.91 0.89 0.85 0.84 0.83 0.80 0.80 0.81 0.83 0.81 0.77 0.73 0.71 0.67 0.62 0.56 0.52 0.48 0.45 0.46 0.50 0.52 0.53 0.52 0.49 0.44 0.41 0.39 0.38 0.37 0.37 0.36 0.35 0.34 0.32 0.30 0.31 0.35 0.40 0.41 0.41 0.42 0.43 0.43 0.43 0.43 0.42 0.40 0.38 0.36 0.35 0.34 0.35 0.35 0.36 0.36 0.36 0.37 0.35 0.34 0.33
0.99 0.99 0.98 0.96 0.95 0.95 0.95 0.94 0.95 0.95 0.95 0.93 0.93 0.91 0.90 0.93 0.95 0.96 0.95 0.93 0.92 0.91 0.91 0.92 0.90 0.89 0.86 0.82 0.82 0.82 0.81 0.79 0.78 0.77 0.74 0.71 0.68 0.66 0.62 0.58 0.55 0.51 0.49 0.47 0.48 0.50 0.51 0.49 0.47 0.44 0.41 0.39 0.38 0.38 0.38 0.36 0.34 0.32 0.30 0.31 0.34 0.37 0.40 0.41 0.42 0.43 0.43 0.42 0.43 0.42 0.41 0.40 0.39 0.39 0.37 0.37 0.36 0.35 0.36 0.37 0.37 0.36 0.36 0.36 0.34
0.95 0.95 0.95 0.95 0.95 0.93 0.94 0.94 0.95 0.95 0.94 0.93 0.92 0.91 0.89 0.87 0.90 0.95 0.95 0.93 0.91 0.90 0.89 0.89 0.88 0.86 0.85 0.82 0.78 0.75 0.75 0.75 0.75 0.74 0.71 0.69 0.68 0.67 0.65 0.62 0.59 0.56 0.52 0.49 0.45 0.45 0.47 0.47 0.45 0.44 0.42 0.39 0.38 0.38 0.37 0.35 0.31 0.30 0.30 0.33 0.37 0.40 0.41 0.41 0.43 0.43 0.42 0.42 0.42 0.42 0.42 0.42 0.42 0.41 0.40 0.39 0.38 0.36 0.36 0.36 0.35 0.35 0.35 0.36 0.36
0.97 0.96 0.97 0.98 0.98 0.97 0.96 0.95 0.95 0.94 0.93 0.92 0.92 0.92 0.90 0.89 0.87 0.87 0.91 0.93 0.91 0.88 0.88 0.88 0.89 0.90 0.89 0.85 0.81 0.75 0.73 0.73 0.73 0.72 0.70 0.68 0.67 0.64 0.62 0.61 0.58 0.55 0.53 0.50 0.47 0.44 0.43 0.43 0.43 0.43 0.41 0.38 0.37 0.37 0.37 0.35 0.32 0.33 0.34 0.35 0.37 0.40 0.41 0.42 0.43 0.42 0.41 0.42 0.43 0.43 0.43 0.43 0.43 0.43 0.42 0.40 0.38 0.36 0.36 0.35 0.36 0.35 0.36 0.36 0.36
0.99 0.99 0.98 0.99 0.99 0.99 0.98 0.96 0.95 0.95 0.95 0.95 0.94 0.95 0.95 0.94 0.91 0.87 0.82 0.81 0.82 0.83 0.85 0.87 0.89 0.88 0.86 0.84 0.80 0.77 0.74 0.73 0.75 0.74 0.73 0.68 0.63 0.61 0.58 0.55 0.54 0.53 0.51 0.47 0.45 0.41 0.39 0.38 0.39 0.39 0.39 0.38 0.37 0.37 0.36 0.35 0.35 0.36 0.37 0.38 0.39 0.40 0.41 0.44 0.43 0.42 0.42 0.44 0.44 0.44 0.44 0.44 0.44 0.42 0.41 0.40 0.39 0.37 0.36 0.36 0.36 0.35 0.36 0.36 0.35
0.99 0.99 0.99 0.99 0.98 0.97 0.96 0.96 0.97 0.97 0.97 0.96 0.96 0.96 0.95 0.93 0.87 0.82 0.80 0.81 0.82 0.81 0.81 0.83 0.85 0.83 0.80 0.79 0.78 0.76 0.74 0.73 0.73 0.74 0.72 0.67 0.62 0.60 0.58 0.53 0.49 0.48 0.47 0.46 0.44 0.41 0.38 0.35 0.34 0.34 0.35 0.35 0.36 0.36 0.35 0.35 0.36 0.37 0.37 0.37 0.38 0.40 0.41 0.43 0.43 0.43 0.44 0.45 0.45 0.45 0.45 0.44 0.43 0.43 0.41 0.39 0.38 0.36 0.36 0.36 0.36 0.36 0.35 0.36 0.36
1.00 0.99 0.99 0.99 0.99 0.99 0.98 0.98 0.99 1.00 1.01 1.01 1.01 0.98 0.94 0.91 0.88 0.87 0.85 0.84 0.84 0.83 0.81 0.79 0.77 0.76 0.76 0.76 0.75 0.74 0.72 0.71 0.72 0.71 0.69 0.67 0.64 0.61 0.55 0.52 0.48 0.44 0.41 0.40 0.39 0.37 0.35 0.33 0.32 0.32 0.33 0.34 0.36 0.36 0.35 0.35 0.36 0.37 0.37 0.38 0.38 0.40 0.41 0.41 0.42 0.43 0.44 0.45 0.46 0.46 0.45 0.44 0.44 0.43 0.43 0.41 0.39 0.37 0.36 0.37 0.37 0.37 0.37 0.37 0.37
1.00 0.98 0.97 0.98 0.99 1.00 1.02 1.03 1.04 1.06 1.07 1.03 0.98 0.95 0.91 0.87 0.85 0.84 0.82 0.80 0.77 0.76 0.74 0.73 0.73 0.71 0.71 0.71 0.71 0.70 0.71 0.72 0.73 0.72 0.70 0.68 0.66 0.61 0.57 0.53 0.48 0.45 0.43 0.42 0.42 0.41 0.40 0.38 0.37 0.35 0.35 0.35 0.35 0.36 0.36 0.35 0.35 0.35 0.36 0.37 0.37 0.38 0.38 0.39 0.40 0.43 0.45 0.46 0.46 0.45 0.44 0.43 0.42 0.41 0.39 0.37 0.35 0.35 0.37 0.38 0.38 0.37 0.37 0.37 0.37
1.02 1.01 1.01 1.02 1.03 1.04 1.04 1.04 1.00 1.02 0.99 0.98 0.95 0.91 0.86 0.83 0.80 0.79 0.78 0.77 0.74 0.72 0.71 0.71 0.71 0.70 0.69 0.71 0.74 0.73 0.75 0.76 0.74 0.71 0.69 0.68 0.66 0.61 0.58 0.56 0.54 0.49 0.45 0.44 0.44 0.42 0.40 0.39 0.38 0.38 0.37 0.37 0.36 0.36 0.36 0.35 0.34 0.34 0.35 0.36 0.37 0.37 0.38 0.38 0.41 0.44 0.46 0.46 0.45 0.44 0.43 0.41 0.42 0.41 0.40 0.38 0.38 0.37 0.38 0.38 0.37 0.37 0.37 0.37 0.37
1.01 1.02 1.03 1.03 1.02 1.02 1.02 1.00 0.99 0.96 0.93 0.90 0.88 0.85 0.82 0.80 0.78 0.76 0.76 0.74 0.72 0.71 0.71 0.70 0.70 0.71 0.73 0.75 0.74 0.75 0.73 0.72 0.71 0.69 0.69 0.68 0.67 0.64 0.61 0.58 0.54 0.51 0.49 0.47 0.45 0.43 0.41 0.39 0.39 0.40 0.39 0.39 0.37 0.36 0.35 0.34 0.33 0.32 0.33 0.33 0.33 0.34 0.36 0.38 0.42 0.45 0.46 0.45 0.45 0.44 0.42 0.42 0.43 0.43 0.42 0.40 0.38 0.37 0.37 0.37 0.37 0.37 0.36 0.36 0.36
0.99 1.01 1.02 1.02 1.01 1.00 0.97 0.94 0.91 0.89 0.87 0.85 0.83 0.82 0.80 0.80 0.78 0.77 0.75 0.73 0.71 0.72 0.72 0.72 0.73 0.74 0.75 0.76 0.74 0.74 0.71 0.71 0.70 0.68 0.67 0.67 0.66 0.65 0.63 0.60 0.56 0.53 0.50 0.49 0.46 0.43 0.41 0.41 0.40 0.39 0.38 0.37 0.36 0.35 0.33 0.32 0.31 0.31 0.31 0.33 0.33 0.34 0.36 0.39 0.41 0.41 0.41 0.42 0.43 0.44 0.44 0.43 0.44 0.44 0.43 0.42 0.41 0.39 0.37 0.36 0.37 0.37 0.36 0.36 0.37
0.98 0.98 0.98 0.95 0.92 0.89 0.86 0.85 0.85 0.84 0.84 0.84 0.83 0.81 0.78 0.78 0.77 0.76 0.74 0.73 0.72 0.72 0.71 0.72 0.73 0.75 0.75 0.75 0.74 0.73 0.71 0.71 0.70 0.69 0.69 0.68 0.67 0.64 0.61 0.59 0.58 0.55 0.52 0.48 0.47 0.46 0.44 0.41 0.38 0.36 0.36 0.35 0.35 0.35 0.35 0.34 0.35 0.37 0.38 0.39 0.40 0.40 0.40 0.41 0.42 0.41 0.42 0.43 0.43 0.44 0.45 0.45 0.45 0.45 0.43 0.43 0.43 0.41 0.39 0.37 0.36 0.37 0.38 0.38 0.38
0.95 0.93 0.91 0.87 0.85 0.83 0.82 0.81 0.81 0.83 0.83 0.82 0.81 0.80 0.79 0.77 0.77 0.76 0.75 0.75 0.74 0.74 0.73 0.72 0.73 0.75 0.75 0.75 0.74 0.73 0.71 0.70 0.70 0.68 0.67 0.64 0.62 0.61 0.60 0.58 0.57 0.55 0.52 0.49 0.47 0.45 0.43 0.42 0.41 0.41 0.41 0.41 0.41 0.41 0.41 0.43 0.45 0.46 0.46 0.45 0.44 0.43 0.42 0.41 0.41 0.41 0.41 0.41 0.42 0.44 0.45 0.45 0.46 0.46 0.46 0.45 0.44 0.43 0.40 0.39 0.39 0.38 0.38 0.38 0.39
0.85 0.82 0.80 0.81 0.81 0.81 0.80 0.81 0.83 0.82 0.82 0.81 0.79 0.79 0.78 0.77 0.76 0.76 0.76 0.75 0.74 0.73 0.72 0.71 0.71 0.72 0.71 0.69 0.67 0.66 0.65 0.65 0.64 0.63 0.62 0.61 0.59 0.57 0.56 0.55 0.54 0.55 0.55 0.53 0.51 0.48 0.48 0.48 0.49 0.49 0.48 0.47 0.46 0.46 0.47 0.48 0.50 0.50 0.48 0.45 0.43 0.41 0.41 0.41 0.42 0.44 0.45 0.44 0.44 0.45 0.46 0.46 0.47 0.47 0.46 0.46 0.45 0.44 0.42 0.40 0.40 0.39 0.39 0.39 0.39
0.81 0.80 0.80 0.80 0.80 0.80 0.80 0.81 0.80 0.80 0.80 0.80 0.80 0.79 0.78 0.77 0.77 0.75 0.74 0.72 0.71 0.70 0.69 0.68 0.66 0.63 0.62 0.62 0.62 0.61 0.60 0.60 0.60 0.60 0.60 0.59 0.57 0.56 0.55 0.56 0.57 0.58 0.58 0.58 0.59 0.58 0.55 0.53 0.51 0.50 0.49 0.48 0.48 0.48 0.49 0.51 0.52 0.51 0.49 0.47 0.46 0.46 0.46 0.47 0.49 0.49 0.47 0.46 0.45 0.45 0.46 0.46 0.46 0.46 0.46 0.46 0.45 0.44 0.42 0.41 0.41 0.40 0.41 0.41 0.42
0.83 0.81 0.80 0.79 0.79 0.78 0.79 0.80 0.79 0.79 0.79 0.79 0.79 0.78 0.77 0.76 0.74 0.73 0.72 0.70 0.69 0.67 0.64 0.63 0.62 0.61 0.61 0.61 0.60 0.60 0.60 0.60 0.59 0.59 0.58 0.57 0.58 0.59 0.60 0.60 0.60 0.60 0.60 0.59 0.59 0.57 0.55 0.52 0.49 0.46 0.44 0.45 0.46 0.47 0.48 0.49 0.50 0.51 0.52 0.52 0.52 0.52 0.51 0.50 0.51 0.52 0.48 0.44 0.42 0.42 0.43 0.45 0.46 0.47 0.48 0.47 0.47 0.45 0.44 0.44 0.43 0.43 0.43 0.43 0.43
0.84 0.82 0.81 0.80 0.79 0.79 0.79 0.79 0.79 0.78 0.78 0.77 0.76 0.76 0.76 0.75 0.73 0.70 0.68 0.66 0.64 0.62 0.62 0.62 0.62 0.61 0.60 0.60 0.60 0.60 0.60 0.60 0.60 0.60 0.60 0.60 0.60 0.61 0.63 0.62 0.62 0.61 0.58 0.55 0.53 0.51 0.49 0.47 0.44 0.42 0.41 0.41 0.44 0.46 0.47 0.48 0.49 0.50 0.52 0.53 0.53 0.53 0.53 0.54 0.54 0.50 0.47 0.45 0.44 0.46 0.47 0.49 0.49 0.50 0.50 0.50 0.50 0.49 0.48 0.47 0.46 0.46 0.45 0.44 0.45
0.87 0.85 0.84 0.82 0.81 0.81 0.81 0.81 0.79 0.77 0.76 0.74 0.72 0.70 0.69 0.69 0.68 0.67 0.66 0.65 0.64 0.63 0.62 0.61 0.61 0.60 0.59 0.59 0.59 0.60 0.61 0.61 0.61 0.60 0.60 0.60 0.61 0.62 0.63 0.63 0.61 0.59 0.56 0.53 0.51 0.49 0.48 0.47 0.46 0.44 0.43 0.43 0.45 0.46 0.46 0.47 0.48 0.49 0.50 0.51 0.52 0.53 0.55 0.56 0.55 0.53 0.51 0.49 0.49 0.49 0.50 0.50 0.50 0.51 0.51 0.52 0.51 0.50 0.49 0.48 0.47 0.46 0.46 0.47 0.47
0.92 0.90 0.87 0.85 0.83 0.81 0.80 0.78 0.73 0.71 0.71 0.70 0.69 0.67 0.66 0.66 0.65 0.64 0.64 0.64 0.64 0.63 0.61 0.60 0.58 0.58 0.58 0.59 0.60 0.60 0.61 0.61 0.60 0.60 0.60 0.59 0.59 0.60 0.60 0.59 0.57 0.55 0.54 0.53 0.53 0.52 0.51 0.48 0.47 0.46 0.45 0.45 0.46 0.47 0.48 0.49 0.50 0.51 0.52 0.54 0.55 0.56 0.57 0.57 0.56 0.54 0.53 0.53 0.54 0.54 0.52 0.52 0.53 0.53 0.52 0.51 0.51 0.50 0.48 0.47 0.48 0.48 0.48 0.47 0.47
0.92 0.88 0.84 0.82 0.80 0.78 0.75 0.68 0.62 0.61 0.62 0.64 0.64 0.63 0.63 0.63 0.62 0.62 0.62 0.62 0.61 0.61 0.60 0.57 0.56 0.57 0.57 0.57 0.57 0.58 0.59 0.59 0.59 0.59 0.58 0.58 0.57 0.56 0.57 0.57 0.57 0.56 0.54 0.53 0.54 0.55 0.55 0.54 0.52 0.50 0.48 0.48 0.48 0.48 0.49 0.49 0.51 0.53 0.55 0.57 0.58 0.58 0.57 0.57 0.55 0.53 0.52 0.52 0.53 0.53 0.53 0.54 0.54 0.53 0.52 0.50 0.50 0.50 0.50 0.49 0.48 0.48 0.47 0.47 0.46
0.88 0.84 0.81 0.77 0.74 0.70 0.67 0.63 0.60 0.58 0.57 0.58 0.59 0.59 0.59 0.59 0.59 0.59 0.59 0.59 0.59 0.58 0.58 0.57 0.56 0.56 0.56 0.56 0.57 0.58 0.59 0.58 0.58 0.58 0.58 0.57 0.57 0.57 0.57 0.57 0.57 0.56 0.55 0.55 0.56 0.56 0.56 0.55 0.54 0.53 0.52 0.51 0.50 0.49 0.50 0.51 0.53 0.54 0.55 0.56 0.57 0.58 0.57 0.55 0.53 0.53 0.53 0.55 0.54 0.54 0.54 0.54 0.52 0.51 0.50 0.49 0.49 0.49 0.48 0.48 0.47 0.47 0.46 0.46 0.46
0.84 0.80 0.77 0.72 0.68 0.67 0.64 0.62 0.60 0.60 0.59 0.58 0.58 0.58 0.58 0.58 0.58 0.57 0.57 0.57 0.57 0.58 0.59 0.59 0.58 0.58 0.57 0.57 0.57 0.57 0.58 0.59 0.59 0.58 0.58 0.58 0.58 0.58 0.57 0.56 0.55 0.55 0.55 0.56 0.56 0.57 0.56 0.53 0.51 0.50 0.49 0.48 0.47 0.47 0.50 0.53 0.55 0.56 0.57 0.57 0.57 0.56 0.55 0.54 0.54 0.55 0.56 0.56 0.55 0.54 0.54 0.52 0.51 0.49 0.49 0.49 0.50 0.48 0.47 0.46 0.45 0.45 0.46 0.46 0.46
Wind_Speed
21 21 20 19 19 18 18 17 17 16 15 15 14 14 14 14 14 14 14 14 14 14 14 14 14 14 14 14 14 14 14 14 13 13 13 13 12 12 12 11 11 11 11 11 11 11 11 11 11 11 11 12 12 12 12 13 13 14 15 15 15 15 16 16 17 18 18 19 20 20 21 22 23 24 26 27 28 30 30 31 32 32 32 32 33
22 21 20 19 19 19 18 18 17 16 15 15 14 14 14 14 14 14 14 14 14 14 14 14 14 14 15 15 15 14 14 13 13 13 13 13 13 13 12 12 12 11 11 11 12 12 12 12 12 12 12 12 13 13 13 13 13 14 15 15 15 15 16 16 17 18 18 19 20 20 21 22 23 24 26 27 28 30 30 31 31 32 32 32 33
22 21 20 19 19 19 18 18 17 16 15 15 14 14 14 14 14 14 14 14 14 14 14 14 14 14 15 15 15 14 14 14 14 14 14 14 13 13 13 13 13 12 12 12 12 12 12 12 12 12 13 13 13 13 13 14 14 14 15 15 15 15 16 16 17 18 18 19 20 20 21 22 23 24 26 27 29 29 30 31 31 32 32 32 33
22 21 20 20 19 19 18 18 17 17 16 15 14 15 14 14 14 14 13 13 13 14 14 14 14 14 15 15 15 15 14 14 14 14 14 14 14 14 13 14 14 13 13 13 13 13 13 13 13 13 13 14 14 14 14 14 15 15 15 15 15 16 16 17 17 18 18 19 20 20 21 22 23 24 26 28 28 29 30 30 31 31 32 32 33
22 21 20 20 19 19 19 18 18 17 16 15 15 15 15 15 14 14 13 13 13 14 14 14 14 14 14 15 15 14 14 14 14 14 14 14 14 14 14 14 14 14 14 14 14 14 14 14 14 14 14 14 14 14 14 14 15 15 15 15 16 16 16 17 18 18 18 19 20 20 21 22 23 25 26 28 28 29 29 30 31 31 31 32 33
22 22 21 20 19 19 19 18 18 18 17 16 15 15 16 16 15 14 14 14 14 14 14 14 14 14 14 14 14 14 14 14 14 14 15 15 15 15 15 15 15 15 15 15 15 15 15 14 14 14 15 15 15 15 15 15 15 16 16 16 16 16 17 17 18 18 19 19 20 21 22 23 24 25 26 27 28 29 29 30 30 31 31 32 32
23 22 21 20 20 19 19 19 18 18 17 16 16 16 17 16 15 15 15 14 14 14 14 14 14 14 15 15 15 15 14 14 15 15 15 15 15 16 16 16 16 16 16 16 16 16 15 15 15 15 15 16 16 16 16 15 16 16 16 16 16 17 17 18 18 19 19 20 20 21 22 23 24 25 26 27 28 29 30 30 30 31 31 32 32
23 22 21 20 20 19 19 19 18 18 17 16 16 17 17 16 15 15 15 14 14 14 14 14 14 15 15 15 15 15 15 15 15 16 16 16 16 16 16 16 17 17 17 17 17 17 16 16 16 16 16 16 16 16 16 16 16 17 17 17 17 17 17 18 18 19 19 20 21 22 22 24 25 25 26 27 28 29 30 30 31 31 32 32 32
23 22 21 21 20 19 19 19 19 18 17 17 17 17 17 16 16 15 15 14 14 14 14 14 14 15 15 15 15 15 16 16 16 16 17 17 17 17 17 17 17 17 18 17 18 18 17 16 16 17 16 16 17 17 17 17 17 17 17 17 17 17 18 18 18 19 20 21 21 22 23 24 25 26 27 27 28 29 30 31 31 31 32 32 32
23 22 22 21 20 20 19 19 19 18 18 17 17 17 17 17 16 15 15 14 14 14 15 15 15 15 15 16 16 16 16 17 17 17 18 18 18 18 18 17 17 18 18 18 18 18 18 17 17 17 17 17 17 17 17 17 18 17 17 17 17 17 18 18 18 19 20 21 21 22 23 24 25 26 27 28 28 29 30 31 31 32 32 32 32
23 22 22 21 20 20 19 19 19 19 19 18 18 18 17 17 17 16 15 15 15 15 15 16 16 16 16 16 17 17 17 17 18 18 18 18 19 19 18 18 18 18 18 18 19 19 19 18 18 18 18 18 18 18 18 18 17 17 17 17 17 18 18 18 18 19 20 21 21 22 23 24 25 26 27 28 29 29 30 31 31 32 32 33 32
23 22 22 21 21 20 20 20 19 19 19 19 18 18 18 17 17 17 16 15 15 15 16 16 16 17 17 17 17 18 18 18 18 18 18 19 19 19 20 19 19 19 19 19 19 19 19 19 19 19 19 19 18 18 18 18 18 18 18 18 18 19 19 18 19 19 20 21 22 23 23 24 25 26 27 28 29 29 29 30 31 31 32 33 33
24 23 22 21 21 21 20 20 20 20 20 19 19 18 18 18 18 17 16 16 16 16 16 17 17 17 17 17 18 18 18 18 18 19 19 20 20 21 21 21 21 21 20 20 20 20 20 19 19 20 20 20 19 19 19 19 19 19 19 19 19 20 20 20 19 20 20 21 22 23 24 24 25 27 28 29 29 29 29 30 30 31 32 33 33
24 23 22 21 21 21 21 20 20 20 20 19 19 19 19 18 18 17 17 17 17 17 17 17 17 17 18 18 18 18 18 19 19 19 20 20 20 21 22 22 22 22 22 22 21 21 20 20 20 20 21 22 22 21 20 20 19 19 20 20 20 21 21 20 20 21 21 21 22 23 24 24 25 27 28 29 29 29 29 29 30 30 31 32 33
23 23 22 21 21 21 21 21 21 21 20 20 19 19 19 19 18 18 18 18 18 18 18 18 18 18 18 18 18 19 19 19 19 19 20 20 21 22 22 22 22 22 22 22 22 22 22 21 21 21 22 23 23 22 21 20 20 20 20 21 21 21 21 21 21 21 21 22 23 23 24 24 26 27 28 28 28 28 28 28 29 30 30 31 31
23 22 22 21 22 21 21 21 21 21 20 20 20 20 20 19 19 18 18 18 18 18 19 19 19 19 19 19 19 19 20 20 20 20 20 20 21 22 22 22 22 22 23 23 23 23 23 22 22 22 23 24 23 21 20 20 20 20 21 21 21 21 21 21 21 21 21 23 23 24 24 26 27 27 28 27 27 27 27 27 28 29 30 30 31
23 22 22 21 22 21 21 21 21 21 21 21 20 20 20 20 19 19 19 19 19 19 19 19 20 20 20 20 20 20 21 21 20 20 20 20 20 21 21 21 22 22 23 23 23 23 23 23 23 23 24 24 22 21 20 21 21 21 21 21 21 21 21 21 21 21 22 23 24 24 25 26 27 27 27 27 27 26 26 27 28 29 29 30 30
23 22 22 22 22 21 21 21 22 22 21 21 21 21 21 20 20 20 19 19 19 20 20 20 20 21 21 21 21 21 20 21 21 21 21 20 20 20 21 21 21 21 21 21 21 22 22 23 24 23 24 23 22 21 21 21 21 22 22 21 22 21 21 20 20 21 22 23 23 23 24 25 25 26 25 26 26 25 25 26 28 28 29 30 30
23 22 22 22 22 21 21 22 22 22 22 21 21 21 21 21 20 20 20 20 20 20 20 20 21 21 21 21 21 21 20 21 22 22 22 22 21 21 21 21 21 21 20 20 21 22 23 23 23 23 23 22 21 21 21 21 22 22 22 22 21 21 21 21 21 22 22 21 22 22 23 24 25 25 24 25 25 25 25 26 27 28 29 29 29
23 22 22 22 22 21 21 22 22 22 21 21 21 21 21 21 20 20 20 20 20 20 21 21 21 21 21 21 21 21 21 22 23 23 23 22 22 21 21 21 21 21 20 20 21 22 23 23 23 22 21 21 21 21 21 22 22 22 22 22 21 21 21 21 21 21 21 21 21 22 23 24 24 24 23 24 25 25 25 26 26 27 28 29 29
22 22 22 22 21 21 21 21 21 21 21 21 21 21 21 21 21 21 20 20 20 21 21 21 21 20 20 20 21 21 22 23 24 24 24 23 23 22 22 22 22 21 21 21 21 22 23 23 22 21 20 20 22 22 22 22 22 22 22 22 22 22 22 22 22 21 20 21 22 23 23 23 23 22 23 23 24 24 25 25 26 26 27 28 28
22 21 21 21 21 21 21 21 20 21 21 21 21 21 21 21 21 21 20 20 20 21 20 20 20 20 20 21 21 22 23 24 25 25 24 23 23 23 22 22 21 21 21 21 21 21 22 22 21 21 20 21 22 23 23 23 22 22 22 23 23 23 22 22 22 21 21 21 23 23 23 23 22 22 22 23 23 23 24 25 25 25 26 27 27
22 21 21 21 21 21 21 20 20 20 21 21 21 21 21 21 21 21 20 20 20 20 20 20 20 20 21 21 22 23 24 25 25 25 25 24 24 24 23 22 22 21 21 21 21 21 21 21 21 22 21 21 22 23 23 23 22 22 22 23 23 23 23 22 22 21 21 22 24 24 23 22 22 22 22 23 23 23 24 24 24 24 25 26 26
22 21 21 21 20 20 20 20 20 20 21 21 21 21 21 20 20 20 20 20 20 20 20 20 21 21 22 23 24 24 25 25 25 25 25 25 25 24 23 23 22 22 22 21 21 21 21 21 22 22 22 22 22 22 23 23 22 22 23 23 23 23 22 22 22 21 22 23 24 23 23 22 22 22 23 23 23 23 23 24 23 24 25 25 26
21 20 20 20 20 19 19 19 19 19 20 21 20 20 20 20 19 20 20 20 20 20 21 21 22 23 24 24 25 25 25 25 25 25 25 24 24 23 23 24 24 23 22 22 22 21 22 22 22 22 22 22 21 21 22 22 22 23 23 23 23 22 22 22 22 22 22 23 23 23 23 22 22 23 23 23 23 23 23 23 23 23 24 25 25
20 19 19 19 19 19 19 18 18 19 19 19 20 20 19 19 19 19 20 20 20 21 21 22 23 24 24 25 25 25 25 24 24 23 23 23 23 24 24 25 25 24 23 23 22 22 22 22 22 22 22 21 21 21 22 22 23 23 24 23 23 22 22 22 21 22 22 23 24 24 24 23 23 23 23 23 22 22 22 22 22 22 23 23 24
19 19 18 18 18 18 18 18 18 18 18 19 19 19 19 19 19 19 19 20 20 21 22 23 23 24 24 24 24 24 24 23 22 22 23 24 25 25 25 24 25 24 24 24 23 22 22 22 21 21 21 21 21 22 23 23 24 24 24 24 23 23 22 22 22 22 23 24 24 24 24 24 23 23 23 23 22 23 22 21 21 22 22 23 24
19 19 18 18 17 17 17 17 17 18 18 19 19 19 19 19 20 20 21 21 21 21 22 23 24 24 24 24 23 23 22 22 22 23 24 25 25 24 24 24 25 25 25 24 24 23 22 22 21 21 21 21 22 23 23 24 24 24 24 24 24 23 23 23 22 23 24 24 24 24 24 24 23 24 24 23 22 22 22 21 21 22 22 22 23
19 19 18 18 17 16 17 17 17 17 18 18 19 19 19 20 20 21 21 22 22 22 23 23 23 23 23 23 22 22 21 22 22 23 24 24 24 24 24 25 25 25 25 25 24 23 23 22 22 22 22 22 23 23 24 24 24 24 24 24 24 23 23 22 23 23 24 24 24 24 24 23 23 24 24 23 22 22 21 21 21 21 21 22 23
19 19 18 18 17 17 17 17 17 17 17 17 18 18 19 19 20 21 21 22 23 23 23 23 23 22 22 22 21 21 21 21 22 23 24 23 23 24 24 24 25 25 25 24 24 24 24 23 23 23 24 23 23 24 24 24 24 24 24 24 24 23 23 23 23 24 24 24 24 23 23 23 23 24 23 22 22 22 21 21 21 21 21 21 23
19 19 18 18 18 18 18 18 17 17 17 17 17 18 18 19 20 21 22 22 23 23 22 22 22 21 21 21 21 22 21 21 21 23 23 23 22 23 23 23 23 24 24 24 24 24 24 24 25 25 25 24 24 24 25 25 25 25 25 25 24 24 24 24 24 24 25 25 24 23 23 23 24 23 22 22 22 22 22 21 21 21 21 22 22
18 19 19 19 19 19 18 18 18 18 18 18 18 18 19 19 20 21 22 22 23 22 22 21 21 21 21 21 21 21 21 21 21 22 22 22 22 22 22 22 22 23 23 23 24 25 25 25 25 25 25 25 25 25 25 25 25 25 25 25 24 24 24 24 25 25 25 25 24 24 24 24 24 23 23 23 22 22 22 22 21 21 21 22 22
18 18 19 19 19 18 18 18 18 19 19 19 19 19 19 20 20 21 21 22 22 22 21 21 21 21 21 21 21 21 21 21 21 22 22 22 22 22 22 22 22 22 23 23 24 24 25 25 26 26 26 26 26 26 26 26 26 26 25 25 25 24 25 25 25 26 25 25 24 24 24 24 24 24 23 23 23 22 22 22 22 22 22 22 22
18 19 19 19 18 18 18 18 19 19 20 20 20 20 20 20 21 21 21 20 20 21 21 22 22 22 21 21 21 21 21 21 22 22 22 22 22 22 22 22 22 22 23 23 24 24 25 25 26 26 27 27 27 27 27 27 27 26 25 25 25 25 26 26 26 26 26 25 25 25 24 24 24 24 23 23 23 23 23 22 22 22 23 23 22
18 19 19 19 19 19 19 19 19 19 20 20 20 20 21 21 21 21 21 20 20 21 21 21 21 21 21 21 21 21 21 22 22 22 22 22 22 21 21 21 22 22 23 24 24 24 25 25 26 26 27 27 27 27 27 27 27 26 26 26 26 26 26 26 26 26 26 26 25 25 24 24 24 23 23 23 24 24 24 23 23 23 23 23 22
18 19 19 19 19 19 19 19 19 20 20 20 20 20 20 20 20 20 20 20 20 21 21 21 21 20 20 20 20 21 21 22 22 22 22 21 21 21 21 22 22 23 23 24 24 25 25 25 26 26 27 27 27 27 27 27 27 27 27 27 27 27 27 26 26 26 26 26 25 24 23 23 24 23 23 24 24 24 24 23 23 23 23 22 22
18 18 19 19 19 19 19 19 19 19 19 19 19 19 19 19 19 19 20 20 20 20 20 20 20 19 19 20 20 21 21 21 21 21 22 22 22 22 23 23 23 23 24 24 24 25 25 25 26 26 26 27 27 27 27 28 28 28 28 28 28 28 27 27 27 27 26 26 25 25 24 24 24 24 23 23 23 23 23 23 23 23 22 22 22
18 19 19 19 19 19 19 19 19 18 18 18 18 18 19 19 19 19 20 20 20 20 20 20 20 20 21 21 21 21 22 22 22 22 22 23 24 24 24 24 24 24 24 24 24 25 26 26 26 26 26 27 27 27 28 28 28 29 29 29 29 29 28 28 27 27 26 26 26 25 25 25 24 23 22 22 22 23 23 23 23 22 22 22 23
18 19 19 19 18 19 19 19 19 19 19 19 19 19 19 19 19 20 20 20 20 20 20 20 21 21 22 22 22 22 22 22 22 22 23 23 24 24 24 24 24 25 25 25 25 26 26 26 27 27 27 27 27 27 28 28 29 29 29 29 29 29 29 28 28 27 27 26 26 26 26 25 25 23 22 22 23 23 23 23 23 23 23 24 24
17 17 17 17 17 18 19 19 19 19 19 19 19 19 19 19 19 19 20 20 20 20 20 21 21 22 22 23 23 23 22 22 22 22 23 23 23 24 24 25 25 26 26 26 27 27 27 27 27 27 27 27 27 27 27 28 28 29 29 29 28 28 28 28 27 27 27 27 27 27 26 26 26 24 23 23 23 24 24 24 24 24 24 24 24
17 17 17 17 17 17 17 17 18 18 18 19 19 19 20 20 19 19 19 19 20 20 20 21 21 22 22 22 22 23 23 23 22 22 23 23 24 24 25 26 26 26 26 26 27 27 27 27 27 27 27 27 26 26 26 27 27 27 27 27 27 28 28 27 27 27 27 27 27 27 27 27 26 25 24 24 24 24 24 24 24 24 24 24 24
16 17 17 17 17 17 17 17 18 18 18 19 19 19 20 20 19 19 19 20 20 20 20 21 21 21 21 21 22 22 22 22 22 23 23 23 24 25 25 25 25 26 26 26 26 26 27 27 27 26 26 26 26 25 25 25 25 26 26 27 27 27 27 26 26 27 27 27 27 27 27 27 27 26 25 25 24 24 24 24 24 24 24 24 24
16 16 16 16 16 17 17 17 18 18 18 19 19 19 19 19 19 19 19 20 20 20 21 21 21 21 21 21 21 22 22 22 22 23 23 23 23 24 24 25 25 25 25 26 26 26 26 26 26 25 25 25 25 25 24 24 25 25 26 26 26 26 26 26 27 27 27 27 27 26 26 27 26 26 26 25 25 25 25 25 25 24 24 24 24
15 15 15 15 16 16 16 17 17 18 18 19 19 19 19 19 19 19 19 19 19 20 20 20 20 20 20 20 21 21 22 22 22 22 22 22 22 22 23 23 24 24 25 25 25 25 25 25 25 25 24 24 24 25 25 25 25 25 25 26 26 26 26 26 26 26 26 26 25 25 26 26 26 26 26 25 25 25 25 25 25 24 24 24 24
15 15 15 15 16 16 16 16 17 17 17 18 18 18 18 18 18 18 19 19 19 19 19 19 20 20 20 20 20 20 21 21 21 21 21 21 21 21 22 22 23 23 23 23 23 23 23 23 24 24 24 24 24 25 25 25 25 25 25 25 26 26 26 26 25 25 24 24 24 24 25 25 25 25 25 24 24 24 25 25 25 25 24 24 24
16 16 16 16 16 16 16 16 16 16 17 17 18 18 18 18 18 18 19 19 18 19 19 19 19 20 20 20 20 20 20 20 20 20 20 20 20 20 20 21 21 21 21 21 21 22 22 22 23 23 23 24 24 24 24 24 25 25 26 26 26 25 25 25 24 24 23 23 23 23 23 23 24 24 24 24 24 24 25 25 25 25 25 25 25
15 15 15 15 15 16 16 16 16 17 17 17 18 18 18 18 18 18 19 19 19 19 19 19 19 19 19 19 19 19 19 19 19 19 19 18 18 18 19 19 20 20 20 20 20 21 21 21 22 22 22 22 22 22 23 23 24 24 25 25 24 24 24 24 24 23 23 22 22 22 22 23 23 23 23 24 24 25 25 26 25 25 25 25 25
14 14 14 14 14 14 15 15 16 17 17 17 18 18 18 18 18 18 18 18 18 18 19 19 19 18 18 18 18 18 18 18 18 18 17 17 17 18 18 18 19 19 19 20 20 20 20 21 21 22 22 22 22 22 22 22 22 23 23 23 23 23 23 23 22 22 22 22 22 22 23 23 23 23 24 24 25 25 25 25 25 25 25 26 26
14 14 14 14 14 15 15 15 16 16 16 17 17 17 18 18 18 18 18 17 17 17 17 18 17 17 17 17 17 16 16 16 16 17 17 17 17 18 18 18 18 19 19 19 20 20 20 21 21 21 21 21 21 21 21 21 21 21 22 22 22 22 21 21 21 20 21 22 22 22 23 23 23 23 24 24 25 25 25 25 25 25 25 25 25
16 16 16 16 16 16 15 15 15 15 16 16 16 17 17 17 17 17 17 17 16 16 16 16 16 16 16 17 17 16 16 16 16 16 17 17 17 17 18 18 18 19 19 20 20 20 20 21 21 20 20 20 20 20 20 20 20 21 21 21 21 20 20 19 19 19 20 21 21 21 22 22 23 24 24 24 24 24 25 25 25 25 25 24 24
16 16 16 16 16 15 15 14 14 15 15 16 16 16 16 16 16 16 15 15 15 16 16 15 15 15 15 16 16 16 16 16 17 17 17 17 17 17 17 18 18 19 20 20 20 21 21 21 20 20 20 19 19 20 20 20 20 20 20 20 20 19 19 19 20 20 20 20 21 21 21 22 22 22 22 23 23 23 24 24 23 23 23 23 23
Wind_Direction
216 218 220 223 225 224 225 227 229 230 231 233 235 235 236 236 237 236 231 226 225 226 226 225 227 230 231 233 235 236 237 238 240 241 242 245 247 249 252 255 258 263 268 274 279 283 287 292 297 300 304 308 311 313 315 316 319 324 326 326 327 327 327 328 326 324 325 327 329 330 332 334 334 334 336 336 337 338 339 339 339 340 340 340 341
216 218 220 222 223 224 226 227 229 229 229 231 232 233 234 235 235 234 229 226 227 229 229 229 231 232 233 234 236 236 237 238 240 241 243 245 247 249 253 255 258 262 268 273 277 281 285 289 293 296 300 304 306 309 311 314 316 320 324 324 324 325 325 327 326 325 325 327 329 330 332 333 333 334 335 336 337 338 339 339 339 340 341 341 341
217 219 220 222 223 224 226 227 228 228 228 230 230 231 233 234 234 232 229 229 230 232 232 232 233 234 234 235 235 236 237 239 241 242 244 245 247 250 253 255 258 262 267 271 276 280 283 286 289 292 296 300 303 305 307 311 314 317 320 322 322 323 324 325 325 324 324 326 328 330 331 332 332 334 335 336 337 338 338 339 339 340 341 341 342
217 219 220 221 222 223 225 226 226 226 226 228 229 230 231 233 233 232 230 231 232 233 233 233 233 234 234 233 234 236 237 239 242 244 246 247 248 251 254 256 258 262 266 270 275 278 281 284 286 289 293 297 300 302 303 308 311 313 315 318 321 323 323 324 324 323 323 325 327 329 330 331 332 334 335 336 337 338 338 339 340 341 341 341 342
217 219 219 221 222 223 224 225 225 225 226 227 229 229 229 232 233 232 231 232 232 232 232 233 233 233 233 234 235 236 239 241 244 246 247 249 250 252 255 257 259 262 266 270 273 276 280 283 284 286 290 293 296 298 299 303 308 310 311 314 318 321 321 322 323 322 323 324 326 327 329 330 332 334 335 336 337 338 339 340 340 341 341 341 341
217 218 219 220 222 223 224 224 224 224 226 227 228 229 230 233 233 232 233 233 233 233 232 233 234 233 234 235 237 239 242 244 246 248 249 250 252 254 256 258 261 263 267 269 272 275 278 281 283 285 287 289 292 295 295 299 305 308 309 311 315 318 320 321 321 322 323 323 324 326 328 330 331 333 335 336 337 338 339 340 341 341 341 341 341
217 218 219 220 221 222 223 223 224 225 226 227 228 230 232 233 231 231 233 233 233 233 233 233 235 235 236 238 239 242 245 247 249 251 252 253 254 256 257 260 262 264 266 269 271 274 276 279 282 284 285 287 290 292 293 295 300 305 306 308 312 316 318 319 320 321 322 322 322 324 327 329 331 332 334 336 338 339 339 339 340 340 341 341 341
217 218 218 219 220 222 222 223 224 224 226 226 228 231 232 231 229 230 232 233 234 233 233 235 236 238 239 241 243 246 248 251 253 254 255 255 256 257 259 260 262 264 267 269 271 273 275 278 281 283 285 287 288 290 289 291 296 301 304 306 309 313 316 318 318 319 320 321 321 323 325 328 330 332 333 336 338 339 340 339 338 338 339 340 341
217 217 218 219 220 221 222 223 224 224 225 226 228 230 230 228 229 230 231 233 235 234 234 237 238 240 242 244 247 249 251 255 256 256 257 257 257 258 259 261 263 265 267 269 270 271 273 277 280 281 283 285 287 288 288 288 292 296 301 304 308 311 314 316 317 318 319 320 321 322 324 326 329 331 333 336 337 338 339 339 338 338 338 339 341
217 218 219 220 220 221 222 223 223 224 225 227 229 230 229 228 228 229 231 234 236 235 236 238 241 243 245 247 249 252 255 257 258 257 258 258 258 259 259 262 264 266 268 270 271 272 273 277 280 280 280 282 285 286 287 287 289 293 298 302 306 310 313 314 316 317 319 320 320 322 323 325 328 330 332 335 336 336 338 339 338 337 338 339 341
218 219 220 221 221 222 222 223 223 223 225 228 230 230 228 227 227 228 231 235 237 237 238 240 244 246 248 250 252 254 257 258 258 259 259 259 259 259 260 262 264 266 269 271 273 273 273 276 279 279 279 281 282 284 285 285 287 291 295 299 304 308 311 312 313 316 318 319 320 321 321 322 325 329 331 333 334 335 336 337 337 337 339 339 340
218 219 220 221 221 222 222 222 223 224 226 228 230 229 227 227 227 229 232 236 239 240 241 243 247 249 251 252 253 256 258 258 259 260 260 259 259 260 261 262 263 265 268 270 272 273 274 276 278 277 277 278 280 281 282 284 286 290 293 297 301 304 306 308 310 313 315 317 318 319 320 321 323 327 330 330 331 333 334 336 337 338 339 339 339
219 219 220 220 221 222 223 222 223 224 226 228 229 228 227 227 228 230 233 237 241 243 244 246 249 251 253 253 255 258 260 261 261 262 262 260 260 261 262 262 262 265 267 268 270 271 272 275 278 278 276 276 277 278 279 282 286 289 292 295 298 301 303 304 306 309 312 314 316 318 319 320 322 325 328 328 328 330 332 335 337 338 339 339 339
218 219 219 220 221 222 222 222 223 224 226 228 228 228 228 228 229 232 235 239 242 245 247 248 250 253 254 255 256 259 261 263 263 264 264 262 262 263 264 263 264 265 267 268 269 269 271 276 279 280 278 277 276 276 278 282 286 288 290 293 295 298 301 302 303 305 308 312 314 316 318 320 322 323 325 326 327 329 331 333 336 338 339 339 339
217 217 218 219 220 221 222 222 224 224 226 227 228 229 229 229 231 234 237 240 243 247 249 250 251 254 255 256 258 261 263 263 263 264 266 266 267 268 267 265 265 266 267 269 269 268 270 275 279 281 280 279 277 275 276 281 285 287 289 291 293 297 300 301 301 302 305 309 312 314 316 318 320 321 323 325 327 328 330 333 336 338 339 340 340
215 216 217 218 219 221 222 223 224 225 226 228 229 230 231 231 233 236 239 241 245 248 251 252 253 255 256 257 259 261 263 263 262 265 268 269 271 273 270 267 266 267 269 270 269 269 270 274 279 280 280 280 277 272 274 280 285 287 289 291 293 296 299 299 299 299 302 306 309 311 314 317 319 320 322 325 327 328 331 334 337 338 339 340 341
214 216 217 218 220 222 224 225 225 226 228 229 231 231 233 234 235 238 240 242 245 250 252 254 254 255 256 257 258 260 262 262 262 266 268 268 269 273 273 271 270 271 271 271 271 268 268 272 278 280 280 279 274 270 273 280 284 286 287 289 292 295 297 299 300 300 302 305 308 311 315 318 319 320 322 325 327 329 332 335 337 338 339 340 341
214 215 217 220 222 223 225 226 227 228 230 231 233 234 235 235 237 239 242 244 248 251 253 254 255 255 257 258 259 260 262 263 265 267 269 269 268 270 272 273 273 273 273 274 273 270 268 271 276 280 281 277 270 269 274 279 281 283 285 287 291 292 295 299 301 301 303 306 309 313 316 318 319 320 322 324 327 329 332 334 336 338 339 340 340
214 216 219 221 224 226 228 229 229 230 232 234 235 235 236 237 239 242 245 248 250 252 253 254 255 256 258 259 261 262 263 265 267 269 271 271 269 269 271 271 272 272 273 274 275 274 273 274 276 279 279 273 268 269 274 277 280 282 283 285 288 290 293 298 300 301 303 306 309 314 317 317 318 320 321 323 327 330 330 332 335 337 339 340 340
216 218 220 222 225 228 231 231 231 231 233 235 236 235 236 238 241 243 246 249 251 253 254 255 256 257 259 260 263 264 264 266 268 270 272 272 269 269 270 270 270 272 274 274 275 276 276 277 278 278 275 269 267 270 274 277 280 281 281 283 286 288 292 296 298 300 302 305 310 314 315 315 317 319 319 322 326 329 330 331 334 336 339 340 341
216 219 221 224 226 229 231 232 233 234 235 235 234 234 237 239 241 244 247 249 251 253 255 256 257 258 261 262 264 266 267 268 269 271 272 271 269 268 269 269 270 272 274 274 275 276 277 277 277 276 271 267 268 272 274 277 279 280 281 282 284 287 291 295 297 298 300 304 309 312 313 314 315 317 319 321 325 327 329 330 333 335 338 340 341
218 220 222 225 227 229 231 232 233 236 236 234 233 235 237 240 242 245 247 249 251 253 255 257 258 260 262 264 266 268 270 271 271 271 271 270 269 268 268 269 269 271 273 273 275 277 277 277 276 274 272 270 271 273 274 275 278 280 281 281 283 286 290 293 295 296 297 302 307 310 311 311 313 316 318 320 322 325 327 329 332 335 338 339 340
220 221 224 226 228 228 229 230 232 235 235 233 234 236 238 241 244 246 247 249 251 253 255 257 259 261 263 265 268 271 273 272 271 270 270 270 268 267 266 266 267 270 273 274 275 277 277 277 275 273 272 273 274 274 274 274 277 280 281 282 284 287 289 291 293 294 295 299 304 308 308 308 309 313 317 318 319 321 323 327 331 334 336 338 340
220 223 225 227 226 226 227 229 232 234 234 232 234 236 239 242 245 247 248 250 252 254 257 259 261 262 264 267 271 273 274 273 270 270 269 268 267 265 264 264 266 271 274 275 276 276 276 277 275 273 272 273 275 276 276 276 278 280 281 282 284 285 287 288 291 292 293 297 302 305 305 305 306 310 313 316 317 317 320 324 329 333 334 336 338
220 223 225 224 224 226 227 230 233 234 234 233 234 237 240 243 246 248 250 251 253 256 259 261 263 264 266 269 272 274 274 274 272 269 267 266 265 264 264 266 268 270 273 274 274 274 275 276 275 273 272 274 276 278 280 280 281 282 282 283 283 284 285 287 289 291 293 297 301 302 302 302 304 306 309 313 315 315 317 322 327 330 332 335 337
218 220 222 222 223 226 228 230 233 234 234 235 236 239 242 244 247 250 253 255 256 258 261 263 264 266 269 271 272 273 274 275 273 267 263 263 265 266 267 268 268 268 270 272 272 274 276 276 274 273 273 274 275 278 280 281 282 282 282 282 283 283 284 285 287 290 294 297 299 299 298 299 302 305 307 311 313 312 314 319 324 328 330 333 335
213 214 216 219 222 225 228 230 233 234 235 237 239 242 245 247 250 254 256 258 260 260 262 264 265 267 269 270 271 272 272 273 272 266 262 264 267 268 267 268 267 265 267 269 271 273 275 275 273 273 273 273 274 276 278 280 281 282 282 283 283 283 282 283 285 289 293 296 297 297 295 295 299 304 307 309 310 309 311 316 321 324 327 330 332
209 210 214 218 222 226 228 230 232 235 237 239 242 245 248 251 254 258 260 262 263 263 263 264 265 267 269 270 271 272 271 271 271 269 267 267 269 269 268 267 266 265 265 267 269 272 273 272 272 271 272 272 273 275 277 279 281 283 284 284 284 283 282 282 285 288 291 294 295 296 294 293 296 302 305 306 306 307 309 314 318 320 323 327 328
209 212 216 221 225 229 231 232 234 238 240 243 247 250 253 256 259 263 265 266 266 266 266 266 267 270 271 272 272 271 271 271 272 272 271 271 271 270 269 268 267 266 265 264 266 269 270 270 270 270 270 271 272 274 276 279 281 283 284 285 285 284 283 283 285 287 289 292 294 294 293 293 295 301 304 304 303 303 306 310 315 317 320 324 326
212 215 220 225 229 233 236 238 241 243 245 248 251 255 258 262 264 266 267 267 267 268 268 269 270 271 272 273 273 272 273 273 273 272 272 272 272 271 270 269 269 268 265 264 265 267 268 269 269 269 270 271 271 273 275 278 280 282 283 284 284 283 283 283 284 285 287 289 291 292 292 293 296 300 302 301 300 300 302 307 311 313 316 321 324
217 221 225 229 233 236 239 242 245 247 248 251 253 255 258 262 265 268 268 268 268 268 268 269 271 271 272 273 273 273 274 273 272 272 272 273 273 273 273 272 270 269 267 266 267 267 268 268 269 269 270 270 271 273 275 278 280 281 282 283 283 283 283 284 284 285 287 288 289 289 290 292 295 297 297 297 297 297 299 303 307 309 312 316 320
222 226 231 234 236 239 243 245 247 248 249 250 253 254 257 261 265 269 269 268 266 266 266 268 269 270 271 273 273 273 273 272 271 272 273 273 274 275 275 274 271 270 269 269 269 269 268 269 269 269 270 271 272 273 275 277 279 279 280 281 282 283 284 285 285 285 286 288 288 287 288 291 292 292 293 294 295 295 296 300 303 305 308 313 316
227 232 236 238 240 243 245 247 248 249 249 251 252 255 258 260 263 267 269 268 266 264 264 265 267 268 269 270 271 272 272 271 271 272 273 274 275 276 276 275 273 271 271 271 271 271 270 270 270 270 271 272 273 274 275 277 278 278 279 280 281 282 284 285 285 286 286 287 287 286 286 289 290 290 291 292 292 292 293 297 300 302 306 311 314
233 237 240 242 243 245 247 249 249 250 251 252 254 257 259 261 262 264 265 264 265 265 265 266 268 269 269 268 269 271 272 271 272 273 273 274 276 276 277 277 276 274 273 273 272 272 271 271 271 271 272 273 273 275 276 277 277 278 278 279 280 282 283 284 285 285 286 286 286 286 286 288 289 290 291 292 291 290 292 294 297 299 303 308 311
237 241 244 246 248 250 250 250 251 251 253 255 257 258 259 260 261 262 263 263 265 266 267 268 270 271 270 269 269 270 271 272 273 272 272 274 275 276 277 277 277 276 275 274 273 272 272 272 272 272 273 273 274 275 276 276 277 277 278 279 279 280 281 282 284 285 286 286 285 284 285 287 289 289 290 291 290 289 290 292 294 297 301 305 307
240 243 246 249 251 251 252 252 252 253 254 255 257 258 259 259 260 262 265 266 266 266 267 268 270 272 271 270 269 270 271 273 272 271 270 271 272 273 275 276 276 277 276 275 274 273 273 273 273 273 274 274 275 275 276 276 277 277 277 277 278 280 280 281 282 284 285 284 283 282 283 286 288 289 290 290 289 288 287 290 293 297 301 303 305
242 245 248 250 251 251 252 253 254 254 254 254 256 258 260 260 261 263 266 267 267 267 267 267 267 269 270 270 271 272 273 274 273 272 272 271 272 273 274 275 275 276 276 275 275 274 275 275 275 275 275 275 275 275 276 277 277 277 277 277 278 279 280 280 282 283 283 282 281 280 282 285 288 289 290 290 288 287 287 290 294 297 300 302 305
245 247 248 250 251 252 253 255 256 255 253 254 257 259 260 261 263 264 266 267 268 268 267 266 266 266 268 270 272 273 275 275 274 273 272 272 272 273 273 274 275 275 275 275 275 276 276 277 277 277 277 276 276 276 276 277 277 277 276 277 278 278 279 281 283 283 281 280 280 280 281 284 286 287 288 287 286 286 288 291 293 295 298 301 304
249 249 249 251 253 254 253 254 254 253 253 254 258 260 261 263 264 265 266 267 268 268 268 267 267 267 268 270 271 272 273 274 273 272 272 272 273 273 274 275 277 277 277 276 276 277 277 277 278 278 278 277 277 277 277 277 277 277 277 277 278 278 279 282 283 282 279 278 279 279 280 282 283 284 284 285 285 285 286 289 291 293 296 299 301
249 250 250 251 253 253 253 252 252 252 252 254 257 260 262 263 264 266 267 267 268 268 268 269 269 269 269 270 270 270 271 272 272 272 273 273 273 274 275 276 277 278 278 279 279 279 278 278 278 279 278 278 277 277 278 278 278 278 278 278 279 280 281 282 281 279 278 278 278 279 279 280 281 281 281 283 285 286 286 287 289 291 294 296 298
248 249 250 251 252 253 253 252 252 253 254 256 258 260 262 264 265 266 267 267 267 268 268 269 270 271 271 270 270 271 272 273 274 274 274 274 274 274 275 276 278 279 280 281 281 280 279 278 279 279 279 278 278 278 278 279 278 278 278 279 279 281 281 280 279 278 278 278 278 278 278 278 279 279 280 281 284 286 286 287 288 290 292 294 295
247 249 250 252 253 254 254 254 254 255 256 257 259 261 262 264 265 266 267 268 268 269 269 270 271 273 272 270 269 270 272 273 274 275 276 276 276 276 276 278 280 281 282 282 282 281 280 280 281 281 281 280 279 278 277 278 278 278 279 279 280 281 281 280 278 278 278 278 278 278 277 277 277 278 279 281 282 284 285 286 287 288 290 291 293
247 248 250 251 253 254 256 257 257 257 257 258 260 262 263 264 266 268 269 270 270 270 270 271 272 274 274 272 270 270 272 273 274 276 278 278 277 278 278 279 281 282 282 283 283 283 282 282 283 283 283 281 280 278 277 276 278 279 280 280 281 282 281 281 281 280 279 278 278 277 276 276 276 277 279 280 281 282 283 284 285 287 288 289 291
248 249 250 251 253 255 256 257 257 258 258 259 261 262 264 265 267 268 270 271 272 273 273 273 273 274 276 275 273 273 274 274 275 277 278 279 279 280 280 281 282 283 283 283 283 283 284 284 284 284 284 282 281 279 278 277 278 280 281 281 282 282 281 282 282 282 280 278 277 276 275 274 276 277 279 280 281 282 283 284 284 285 286 288 289
250 252 252 254 256 257 258 259 259 260 260 261 262 263 265 266 268 269 270 272 273 274 275 275 274 275 276 276 275 275 275 275 276 277 279 280 280 281 282 283 284 284 284 285 284 284 285 286 285 285 285 283 281 280 280 279 279 280 280 281 282 282 281 281 281 281 280 279 278 276 276 276 278 279 280 281 281 282 282 283 283 284 285 287 288
251 253 254 255 257 259 260 261 262 262 263 263 264 265 267 268 269 270 271 272 274 275 276 276 277 277 277 277 276 275 275 275 277 278 280 281 282 283 284 286 287 287 288 288 288 287 287 287 286 286 285 284 283 282 281 281 281 280 280 280 281 281 280 280 279 279 279 279 278 277 277 278 279 280 281 281 282 283 283 284 284 285 285 286 288
251 254 255 255 257 259 261 262 263 265 265 265 266 267 268 268 269 270 271 272 274 276 278 278 278 278 278 278 276 276 276 277 278 279 281 282 283 285 286 287 288 290 291 291 291 290 289 288 287 286 285 285 285 284 284 283 283 282 281 281 281 281 280 279 279 278 277 276 276 276 277 279 280 281 282 283 284 284 285 285 285 284 285 286 288
251 253 254 256 258 259 260 262 265 266 267 267 268 268 268 268 268 270 271 271 274 277 280 280 279 278 278 279 279 278 278 278 279 281 281 283 284 286 287 288 289 291 292 293 292 291 290 289 288 288 287 286 285 285 285 285 284 284 283 283 283 282 282 281 280 279 276 274 273 274 277 279 281 282 283 284 285 285 285 285 284 284 285 287 289
252 253 255 258 261 262 264 266 268 269 269 269 269 269 269 268 269 270 271 272 274 278 280 280 278 276 276 278 279 280 279 280 281 282 283 284 285 286 287 288 289 290 292 293 294 293 292 292 291 289 288 286 285 285 285 285 285 285 285 285 284 284 283 282 281 280 277 276 275 276 278 279 281 282 283 284 284 284 284 284 285 285 286 287 289
255 256 258 260 261 262 264 266 267 269 271 271 270 269 270 269 269 270 271 271 273 276 279 279 276 275 275 276 277 278 279 281 284 286 288 289 289 288 288 288 288 289 290 292 293 294 293 293 292 291 288 286 285 285 286 287 287 286 285 285 285 284 284 283 282 281 280 279 279 280 280 281 282 283 284 284 284 284 284 285 285 285 286 287 288
257 256 258 260 261 261 263 263 263 265 270 273 272 270 270 270 270 270 269 269 271 274 277 277 276 276 276 276 275 276 279 283 286 288 290 291 291 291 291 290 289 289 289 290 291 292 293 293 292 290 288 286 286 286 286 287 287 286 285 285 284 284 284 283 283 282 282 282 282 281 281 282 283 284 285 285 285 285 285 285 285 285 286 287 289